Simultaneous Nadir Overpasses (SNOs) Predictions

Prediction of SNOs between GOES-14 and NOAA-20 Satellite Orbit:

Table of predicted SNOs for the next 14.0 days since TLE Epoch: 12/31/2022
Index Date Time (GOES-14) GOES-14 Lat,Lon NOAA-20 Lat,Lon Distance(km) Time Diff (sec)
1 01/01/2023 20:20:42 0.07,-104.11 0.03,-104.28 20.01 80
2 01/02/2023 20:04:37 0.06,-104.12 1.02, -99.75 497.55 80
3 01/04/2023 08:26:28 -0.06,-104.52 0.05,-105.04 59.77 80
4 01/05/2023 08:05:03 -0.05,-104.52 -0.94,-100.51 457.02 80
5 01/06/2023 20:26:59 0.06,-104.14 -0.34,-105.79 189.32 80
6 01/07/2023 20:10:55 0.05,-104.15 0.71,-101.27 328.08 80
7 01/09/2023 08:32:44 -0.06,-104.55 0.41,-106.55 228.28 80
8 01/10/2023 08:11:20 -0.05,-104.56 -0.59,-102.02 288.83 80
9 01/11/2023 20:33:16 0.06,-104.17 -0.63,-107.32 357.84 80
10 01/12/2023 20:17:12 0.06,-104.18 0.38,-102.78 159.64 80
